Terminal Aerodrome Forecast
Issued by NWS North Platte, NE

Home | Current Version | Previous Version | Text Only | Print | Product List | Glossary Off
Versions: 1 2 3 4 5 6 7 8 9 10 11 12 13 14 15 16 17 18 19 20

000
FTUS43 KLBF 021400 AAA
TAFVTN
TAF AMD
KVTN 021424Z 0214/0312 18018G24KT P6SM BKN080 OVC200
     FM021600 17020G29KT P6SM SCT090 BKN150
     FM030400 18012G19KT 6SM -FZDZ BR BKN015 OVC040
     FM030600 24007KT 4SM -SN BR OVC007
     FM030900 35014G24KT 2SM -SN BR OVC004
      TEMPO 0309/0312 3/4SM -SN BR=

USA.gov is the U.S. government's official web portal to all federal, state and local government web resources and services.